Location: B?lite?ti
(46.2833°N, 22.7333°E)
Time: 04:33:25
(UTC+00:00)

Cosmos 1455 - Pass Details

Date: 24 January 2021
Orbit: 499 x 520 km, 82.5° (Epoch: 26 February)

Event Time Altitude Azimuth Distance (km) Brightness Sun altitude
Rises 16:13:34 0° 355° (N) 2,634 5.7 -9.0°
Reaches altitude 10° 16:15:44 10° 1° (N) 1,747 4.7 -9.4°
Maximum altitude 16:19:29 51° 78° (ENE) 653 2.3 -10.0°
Drops below altitude 10° 16:23:13 10° 155° (SSE) 1,743 4.8 -10.6°
Sets 16:25:24 0° 161° (SSE) 2,628 5.8 -11.0°
